sat.trackr.live / text

‹ back to catalog

STARLINK-34184

NORAD 64024 · 2025-102C

PAYLOAD ACTIVE UNKNOWN

§ Identity

Operator
Country
US
Launch date
2025-05-16
Launch site
AFWTR
Launch vehicle
Mass (kg)
RCS (m²)

Purposes: comms

External: N2YO · Heavens-Above · Gunter

§ Orbital elements

Epoch: 2026-09-20T22:28:57.460224Z

Period
94.14 min
Inclination
69.9992°
Eccentricity
0.0003463
Mean motion
15.29590753 rev/d
Perigee alt
474.7 km
Apogee alt
479.4 km
Semi-major
6,855.2 km
B*
3.4900e-4
RAAN
339.5629°
Arg perigee
271.6476°
Mean anomaly
88.4302°
Rev number
7,515

§ Raw data

STARLINK-341841 64024U 25102C   26263.93677616  .00009921  00000+0  34900-3 0  99992 64024  69.9992 339.5629 0003463 271.6476  88.4302 15.29590753 75157

JSON: /api/v1/satellites/64024 · /tle

For live sub-satellite position, see the globe view (requires WebGL).

§ Visibility from observer

Set your observer location to see the next 7 days of passes ≥ 10°. The values pass through the URL so the page stays shareable.

No JS? Fill the form by hand. The geolocation button needs JavaScript.